Sussex, NJ

11:50 PM EST on November 18, 2019 (GMT -0500)
Sussex

Weather History for KFWN - September, 2019

Change the Weather History Date:

Thursday, September 12, 2019

  Actual Average Record
Temperature  
Mean Temperature 68 °F -  
Max Temperature 75 °F 76 °F 97 °F (1983)
Min Temperature 60 °F 46 °F 32 °F (1967)
Cooling Degree Days 2    
Growing Degree Days 18 (Base 50)    
Moisture  
Dew Point 61 °F    
Average Humidity 86    
Maximum Humidity 97    
Minimum Humidity 73    
Precipitation  
Precipitation 0.02 in - - ()
Sea Level Pressure  
Sea Level Pressure 30.15 in    
Wind  
Wind Speed 5 mph ()    
Max Wind Speed 13 mph    
Max Gust Speed 23 mph    
Visibility 8.3 miles    
Events Rain    
Averages and records for this station are not official NWS values.
T = Trace of Precipitation, MM = Missing Value Source: Averaged Metar Reports

Daily Weather History Graph

Daily Weather History Graph

Search for Another Location

Airport or City:

Astronomy

Sep. 12, 2019 Rise Set
Actual Time 6:35 AM EDT 7:13 PM EDT
Civil Twilight 6:07 AM EDT 7:40 PM EDT
Nautical Twilight 5:35 AM EDT 8:13 PM EDT
Astronomical Twilight 5:01 AM EDT 8:47 PM EDT
Moon 6:57 PM EDT (9/12) 4:51 AM EDT (9/12)
Length of Visible Light 13h 33m
Length of Day
12h 37m
Waxing Gibbous, 98% of the Moon is Illuminated
Sep 12
Waxing Gibbous
Sep 14
Full
Sep 21
Last Quarter
Sep 28
New
Oct 5
First Quarter

Hourly Weather History & Observations

Time (EDT) Temp. Dew Point Humidity Pressure Visibility Wind Dir Wind Speed Gust Speed Precip Events Conditions
12:53 AM 71.1 °F 69.1 °F 93% 30.03 in 6.0 mi Calm Calm - N/A   Clear
1:53 AM 70.0 °F 69.1 °F 97% 30.02 in 5.0 mi Calm Calm - N/A   Clear
2:53 AM 70.0 °F 69.1 °F 97% 30.01 in 6.0 mi SSW 3.5 mph - N/A   Clear
3:53 AM 70.0 °F 68.0 °F 93% 30.01 in 5.0 mi Calm Calm - N/A   Mostly Cloudy
4:53 AM 70.0 °F 68.0 °F 93% 30.01 in 7.0 mi Calm Calm - 0.00 in Rain Light Rain
5:53 AM 69.1 °F 66.9 °F 93% 30.02 in 2.5 mi Calm Calm - 0.01 in   Mostly Cloudy
6:04 AM 70.0 °F 68.0 °F 93% 30.03 in 4.0 mi Calm Calm - N/A   Mostly Cloudy
6:53 AM 70.0 °F 68.0 °F 93% 30.04 in 4.0 mi Calm Calm - N/A   Overcast
7:53 AM 73.9 °F 69.1 °F 85% 30.06 in 10.0 mi NE 3.5 mph - N/A   Mostly Cloudy
8:53 AM 75.9 °F 68.0 °F 76% 30.06 in 10.0 mi East 5.8 mph - 0.00 in   Mostly Cloudy
9:53 AM 75.9 °F 66.9 °F 74% 30.07 in 10.0 mi ENE 4.6 mph - 0.00 in Rain Light Rain
10:53 AM 75.0 °F 68.0 °F 79% 30.08 in 10.0 mi NE 10.4 mph - 0.00 in   Overcast
11:53 AM 71.1 °F 64.0 °F 78% 30.10 in 10.0 mi NE 11.5 mph - N/A   Overcast
12:53 PM 70.0 °F 63.0 °F 78% 30.11 in 10.0 mi NNE 8.1 mph - N/A   Overcast
1:53 PM 71.1 °F 62.1 °F 73% 30.10 in 10.0 mi NE 11.5 mph - N/A   Overcast
2:53 PM 66.0 °F 59.0 °F 78% 30.12 in 10.0 mi NNE 10.4 mph - 0.00 in   Overcast
3:12 PM 64.0 °F 59.0 °F 84% 30.13 in 3.0 mi ENE 12.7 mph 23.0 mph 0.00 in Rain Light Rain
3:53 PM 62.1 °F 59.0 °F 90% 30.14 in 7.0 mi NNE 10.4 mph - 0.00 in Rain Light Rain
4:01 PM 62.1 °F 59.0 °F 90% 30.14 in 2.5 mi NNE 9.2 mph - 0.01 in Rain Light Rain
4:19 PM 62.1 °F 59.0 °F 90% 30.14 in 4.0 mi NE 6.9 mph - 0.01 in Rain Light Rain
4:33 PM 63.0 °F 59.0 °F 87% 30.15 in 10.0 mi NNE 10.4 mph - 0.01 in   Overcast
4:53 PM 63.0 °F 59.0 °F 87% 30.15 in 10.0 mi NE 11.5 mph - 0.01 in   Overcast
5:15 PM 63.0 °F 59.0 °F 87% 30.16 in 10.0 mi NE 9.2 mph - N/A   Overcast
5:30 PM 63.0 °F 57.9 °F 84% 30.17 in 10.0 mi NE 6.9 mph 17.3 mph N/A   Overcast
5:53 PM 62.1 °F 57.9 °F 86% 30.18 in 10.0 mi NE 9.2 mph 19.6 mph N/A   Overcast
6:15 PM 62.1 °F 57.0 °F 84% 30.20 in 10.0 mi NNE 9.2 mph 19.6 mph N/A   Overcast
6:53 PM 62.1 °F 57.0 °F 84% 30.21 in 10.0 mi NNE 8.1 mph - N/A   Overcast
7:14 PM 61.0 °F 57.0 °F 87% 30.22 in 8.0 mi NNE 10.4 mph 17.3 mph N/A   Overcast
7:53 PM 61.0 °F 57.0 °F 87% 30.24 in 10.0 mi NNE 6.9 mph - 0.00 in   Overcast
8:28 PM 61.0 °F 57.0 °F 87% 30.26 in 10.0 mi NNE 8.1 mph - N/A   Overcast
8:50 PM 60.8 °F 57.2 °F 88% 30.27 in 10.0 mi NNE 5.8 mph - N/A   Overcast
8:53 PM 61.0 °F 57.0 °F 87% 30.26 in 10.0 mi NNE 5.8 mph - N/A   Overcast
9:04 PM 61.0 °F 57.0 °F 87% 30.27 in 10.0 mi NNE 5.8 mph - N/A   Overcast
9:11 PM 61.0 °F 57.0 °F 87% 30.27 in 10.0 mi NNE 6.9 mph - N/A   Overcast
9:53 PM 61.0 °F 55.9 °F 83% 30.28 in 10.0 mi NE 4.6 mph - N/A   Overcast
10:01 PM 61.0 °F 55.9 °F 83% 30.29 in 10.0 mi NNE 4.6 mph - N/A   Overcast
10:53 PM 61.0 °F 54.0 °F 78% 30.29 in 10.0 mi NE 4.6 mph - N/A   Overcast
11:45 PM 61.0 °F 55.0 °F 81% 30.30 in 10.0 mi NNE 6.9 mph - N/A   Overcast
11:53 PM 61.0 °F 54.0 °F 78% 30.30 in 10.0 mi NNE 6.9 mph - N/A   Overcast